Location: Arrington
(35.8681°N, 86.7092°W)
Time: 21:37:05
(UTC+00:00)

STARLINK 1011 - Pass Details

Date: 23 November 2019
Orbit: 344 x 355 km, 53.0° (Epoch: 13 December)

Event Time Altitude Azimuth Distance (km) Brightness Sun altitude
Exits shadow 11:31:25 14° 243° (WSW) 1,090 4.7 -12.1°
Maximum altitude 11:33:44 51° 318° (NW) 448 2.8 -11.6°
Drops below altitude 10° 11:36:37 10° 37° (NE) 1,324 5.8 -11.1°
Sets 11:38:41 0° 42° (NE) 2,172 7.0 -10.7°
